RYR2JT LIRP-LICJ

Flight info

Callsign RYR2JT
Flight time 1h 3m
Altitude 19000
Route DOCME M729 ELB/N0454F350 DCT VELAD DCT TINTO DCT RONAB DCT GIANO
Aircraft B738/M-SDE2E3FGHIRWXY/LB1

Departure

Time 2026-05-04 16:46
Airport Pisa International Airport (LIRP)

Arrival

Time 2026-05-04 17:49
Airport Falcone–Borsellino Airport (LICJ)
Time Latitude Longitude Altitude Speed Heading
2026-05-04 16:26 43.69768 10.39862 14 ft 0 kts
2026-05-04 16:39 43.69702 10.39822 14 ft 4 kts 67°
2026-05-04 16:39 43.69699 10.39807 16 ft 0 kts 81°
2026-05-04 16:42 43.69697 10.39899 16 ft 18 kts 99°
2026-05-04 16:43 43.69507 10.40081 15 ft 13 kts 173°
2026-05-04 16:43 43.69350 10.40166 21 ft 14 kts 128°
2026-05-04 16:43 43.69322 10.40216 17 ft 0 kts 127°
2026-05-04 16:44 43.69264 10.40323 19 ft 9 kts 136°
2026-05-04 16:45 43.69241 10.40323 19 ft 0 kts 223°
2026-05-04 16:46 43.68761 10.39822 16 ft 111 kts 216°
2026-05-04 16:46 43.67061 10.38055 868 ft 161 kts 216°
2026-05-04 16:47 43.65317 10.36280 2394 ft 172 kts 216°
2026-05-04 16:47 43.62750 10.35803 2865 ft 225 kts 178°
2026-05-04 16:48 43.57618 10.36016 4611 ft 260 kts 180°
2026-05-04 16:48 43.55780 10.36050 5459 ft 263 kts 180°
2026-05-04 16:49 43.52104 10.36097 7128 ft 269 kts 180°
2026-05-04 16:49 43.48325 10.35905 8771 ft 277 kts 198°
2026-05-04 16:50 43.44920 10.33330 10471 ft 281 kts 210°
2026-05-04 16:50 43.41523 10.30600 12283 ft 285 kts 209°
2026-05-04 16:51 43.38057 10.27832 14005 ft 293 kts 210°
2026-05-04 16:51 43.36277 10.26416 14826 ft 297 kts 210°
2026-05-04 16:51 43.32644 10.23528 16506 ft 306 kts 211°
2026-05-04 16:52 43.28911 10.20566 18077 ft 315 kts 211°
2026-05-04 16:52 43.27001 10.19053 18878 ft 318 kts 212°
2026-05-04 16:53 43.23144 10.15999 20359 ft 326 kts 212°
2026-05-04 16:53 43.17132 10.11250 22461 ft 338 kts 211°
2026-05-04 16:54 43.14920 10.10110 23076 ft 347 kts 191°
2026-05-04 16:55 43.05124 10.15216 23883 ft 421 kts 152°
2026-05-04 16:55 42.99874 10.19321 24242 ft 445 kts 152°
2026-05-04 16:56 42.94430 10.23498 25174 ft 451 kts 153°
2026-05-04 16:56 42.86102 10.29799 26384 ft 462 kts 154°
2026-05-04 16:57 42.83310 10.31906 26748 ft 466 kts 154°
2026-05-04 16:57 42.77607 10.36205 27507 ft 472 kts 155°
2026-05-04 16:58 42.68757 10.42209 28528 ft 477 kts 162°
2026-05-04 16:58 42.65664 10.43862 28987 ft 476 kts 164°
2026-05-04 16:59 42.59496 10.47097 29969 ft 474 kts 164°
2026-05-04 17:00 42.47187 10.53729 31099 ft 478 kts 164°
2026-05-04 17:01 42.31893 10.62024 31107 ft 473 kts 164°
2026-05-04 17:02 42.19666 10.68627 31101 ft 475 kts 165°
2026-05-04 17:03 42.10447 10.73584 31103 ft 476 kts 164°
2026-05-04 17:03 42.01203 10.78535 31107 ft 477 kts 164°
2026-05-04 17:04 41.88859 10.85111 31110 ft 479 kts 165°
2026-05-04 17:05 41.76395 10.91723 31100 ft 483 kts 165°
2026-05-04 17:06 41.66999 10.96692 31103 ft 485 kts 164°
2026-05-04 17:07 41.58628 11.01106 31099 ft 486 kts 165°
2026-05-04 17:07 41.51267 11.04979 31088 ft 486 kts 164°
2026-05-04 17:08 41.41835 11.09925 31100 ft 485 kts 165°
2026-05-04 17:09 41.35553 11.13212 31114 ft 485 kts 164°
2026-05-04 17:09 41.29302 11.16478 31114 ft 486 kts 164°
2026-05-04 17:10 41.13562 11.24678 31101 ft 486 kts 164°
2026-05-04 17:11 41.07266 11.27946 31102 ft 486 kts 164°
2026-05-04 17:12 40.97982 11.33478 31113 ft 494 kts 154°
2026-05-04 17:13 40.83259 11.45384 31102 ft 496 kts 154°
2026-05-04 17:14 40.71384 11.54749 31094 ft 497 kts 154°
2026-05-04 17:15 40.62483 11.61717 31091 ft 498 kts 154°
2026-05-04 17:16 40.50514 11.71056 31087 ft 501 kts 154°
2026-05-04 17:17 40.38486 11.80404 31092 ft 503 kts 153°
2026-05-04 17:18 40.26432 11.89739 31093 ft 504 kts 153°
2026-05-04 17:19 40.14370 11.99039 31090 ft 504 kts 153°
2026-05-04 17:20 40.02279 12.08315 31100 ft 503 kts 154°
2026-05-04 17:20 39.93227 12.15247 31118 ft 503 kts 154°
2026-05-04 17:21 39.87132 12.19897 29581 ft 509 kts 154°
2026-05-04 17:21 39.81125 12.24474 28453 ft 496 kts 153°
2026-05-04 17:22 39.78171 12.26722 27917 ft 489 kts 153°
2026-05-04 17:22 39.75249 12.28942 27356 ft 483 kts 153°
2026-05-04 17:23 39.67651 12.34701 25952 ft 466 kts 152°
2026-05-04 17:23 39.64866 12.36808 25436 ft 460 kts 152°
2026-05-04 17:23 39.59404 12.40935 24403 ft 449 kts 152°
2026-05-04 17:24 39.56721 12.42958 23893 ft 443 kts 152°
2026-05-04 17:24 39.48857 12.48881 22385 ft 429 kts 152°
2026-05-04 17:25 39.46284 12.50816 21892 ft 425 kts 152°
2026-05-04 17:25 39.41210 12.54626 20919 ft 419 kts 152°
2026-05-04 17:26 39.39739 12.55729 20636 ft 419 kts 152°
2026-05-04 17:29 39.37352 12.57518 20172 ft 416 kts 152°
2026-05-04 17:30 39.29978 12.63038 18726 ft 400 kts 152°
2026-05-04 17:31 39.25209 12.66602 17791 ft 393 kts 152°
2026-05-04 17:31 39.18162 12.71852 16397 ft 387 kts 152°
2026-05-04 17:32 39.13550 12.75285 15653 ft 373 kts 152°
2026-05-04 17:33 39.06718 12.79419 14954 ft 358 kts 168°
2026-05-04 17:33 39.04330 12.80145 14701 ft 348 kts 171°
2026-05-04 17:34 38.97375 12.81401 13932 ft 325 kts 176°
2026-05-04 17:34 38.95147 12.81739 13677 ft 320 kts 176°
2026-05-04 17:35 38.88701 12.82758 12918 ft 305 kts 175°
2026-05-04 17:35 38.84543 12.83439 12407 ft 298 kts 175°
2026-05-04 17:35 38.82497 12.83777 12163 ft 295 kts 175°
2026-05-04 17:36 38.80472 12.84112 11914 ft 293 kts 175°
2026-05-04 17:36 38.78453 12.84446 11661 ft 291 kts 175°
2026-05-04 17:36 38.76451 12.84777 11413 ft 289 kts 175°
2026-05-04 17:36 38.74466 12.85107 11163 ft 287 kts 175°
2026-05-04 17:37 38.72485 12.85436 10907 ft 286 kts 174°
2026-05-04 17:37 38.70520 12.85762 10659 ft 284 kts 174°
2026-05-04 17:37 38.68560 12.86086 10416 ft 283 kts 174°
2026-05-04 17:37 38.66612 12.86408 10168 ft 282 kts 174°
2026-05-04 17:38 38.64695 12.86726 9918 ft 280 kts 174°
2026-05-04 17:38 38.62765 12.87045 9671 ft 279 kts 174°
2026-05-04 17:38 38.60839 12.87364 9421 ft 278 kts 174°
2026-05-04 17:38 38.58925 12.87681 9171 ft 276 kts 173°
2026-05-04 17:39 38.55132 12.88309 8636 ft 273 kts 173°
2026-05-04 17:39 38.53252 12.88619 8343 ft 272 kts 173°
2026-05-04 17:39 38.51384 12.88927 8052 ft 270 kts 173°
2026-05-04 17:40 38.49522 12.89234 7757 ft 269 kts 173°
2026-05-04 17:40 38.47690 12.89536 7482 ft 268 kts 173°
2026-05-04 17:40 38.45848 12.89840 7208 ft 266 kts 173°
2026-05-04 17:40 38.44017 12.90141 6927 ft 265 kts 173°
2026-05-04 17:41 38.42196 12.90441 6635 ft 263 kts 173°
2026-05-04 17:41 38.40379 12.90740 6350 ft 262 kts 173°
2026-05-04 17:41 38.38575 12.91037 6068 ft 261 kts 173°
2026-05-04 17:41 38.36778 12.91333 5792 ft 259 kts 173°
2026-05-04 17:42 38.34988 12.91627 5545 ft 256 kts 173°
2026-05-04 17:42 38.33288 12.91907 5458 ft 236 kts 173°
2026-05-04 17:42 38.31724 12.92163 5314 ft 218 kts 173°
2026-05-04 17:42 38.30432 12.92375 5195 ft 203 kts 173°
2026-05-04 17:43 38.29045 12.92603 4860 ft 200 kts 173°
2026-05-04 17:43 38.27647 12.92832 4524 ft 199 kts 173°
2026-05-04 17:43 38.26346 12.93046 4433 ft 183 kts 173°
2026-05-04 17:43 38.25109 12.93249 4166 ft 178 kts 173°
2026-05-04 17:44 38.23895 12.93447 3921 ft 175 kts 173°
2026-05-04 17:44 38.22683 12.93646 3733 ft 176 kts 173°
2026-05-04 17:44 38.21466 12.93844 3546 ft 178 kts 173°
2026-05-04 17:44 38.20236 12.94047 3352 ft 178 kts 173°
2026-05-04 17:45 38.19012 12.94247 3158 ft 178 kts 173°
2026-05-04 17:45 38.17797 12.94446 2984 ft 174 kts 173°
2026-05-04 17:45 38.16628 12.94636 2796 ft 165 kts 173°
2026-05-04 17:45 38.15494 12.94821 2648 ft 166 kts 173°
2026-05-04 17:46 38.14367 12.95094 2434 ft 165 kts 156°
2026-05-04 17:46 38.13623 12.96118 2207 ft 166 kts 109°
2026-05-04 17:46 38.13705 12.97543 2079 ft 167 kts 67°
2026-05-04 17:46 38.14165 12.98908 2052 ft 168 kts 67°
2026-05-04 17:47 38.14634 13.00319 1587 ft 176 kts 67°
2026-05-04 17:47 38.15095 13.01697 1271 ft 162 kts 67°
2026-05-04 17:47 38.15519 13.02960 1058 ft 152 kts 67°
2026-05-04 17:47 38.15935 13.04200 873 ft 154 kts 67°
2026-05-04 17:48 38.16357 13.05465 664 ft 156 kts 67°
2026-05-04 17:48 38.16752 13.06647 471 ft 150 kts 66°
2026-05-04 17:48 38.17171 13.07856 279 ft 150 kts 67°
2026-05-04 17:48 38.17561 13.09040 86 ft 146 kts 65°
2026-05-04 17:49 38.17919 13.10109 49 ft 113 kts 66°
2026-05-04 17:49 38.18143 13.10769 52 ft 53 kts 66°
2026-05-04 17:49 38.18282 13.11172 50 ft 46 kts 66°
2026-05-04 17:49 38.18396 13.11524 50 ft 40 kts 67°
2026-05-04 17:50 38.18493 13.11810 52 ft 25 kts 65°
2026-05-04 17:50 38.18600 13.11796 52 ft 19 kts 273°
2026-05-04 17:50 38.18612 13.11647 49 ft 15 kts 276°
2026-05-04 17:50 38.18610 13.11541 51 ft 10 kts 248°
2026-05-04 17:51 38.18590 13.11478 50 ft 7 kts 247°
2026-05-04 17:51 38.18565 13.11403 52 ft 11 kts 246°
2026-05-04 17:51 38.18527 13.11293 52 ft 19 kts 246°
2026-05-04 17:51 38.18470 13.11129 52 ft 19 kts 245°
2026-05-04 17:52 38.18426 13.10998 52 ft 10 kts 248°
2026-05-04 17:52 38.18424 13.10941 49 ft 7 kts 305°
2026-05-04 17:52 38.18471 13.10887 52 ft 9 kts 269°
2026-05-04 17:52 38.18500 13.10775 50 ft 18 kts 291°
2026-05-04 17:53 38.18478 13.10636 50 ft 5 kts 247°
2026-05-04 17:53 38.18467 13.10613 51 ft 3 kts 212°
2026-05-04 17:53 38.18431 13.10626 49 ft 10 kts 159°
2026-05-04 17:53 38.18396 13.10645 52 ft 0 kts 156°